Dubuque, IA

6:45 AM CDT on May 23, 2017 (GMT -0500)
Dubuque Regional

Weather History for KDBQ - October, 2012

Change the Weather History Date:

Tuesday, October 9, 2012

  Actual Average Record
Temperature  
Mean Temperature 48 °F 52 °F  
Max Temperature 60 °F 63 °F 85 °F (2010)
Min Temperature 36 °F 42 °F 25 °F (2000)
Degree Days  
Heating Degree Days 17 13  
Month to date heating degree days 152 104  
Since 1 July heating degree days 368 282  
Cooling Degree Days 0 0  
Month to date cooling degree days 0 4  
Year to date cooling degree days 902 641  
Moisture  
Dew Point 37 °F    
Average Humidity 70    
Maximum Humidity 93    
Minimum Humidity 46    
Precipitation  
Precipitation 0.09 in 0.08 in 1.35 in (1985)
Month to date precipitation 0.09 0.80  
Year to date precipitation 18.01 30.24  
Snow  
Snow 0.00 in 0.00 in - ()
Month to date snowfall 0.0 0.0  
Since 1 July snowfall 0.0 0.0  
Since 1 September snowfall 0.0 0.0  
Snow Depth 0.00 in    
Sea Level Pressure  
Sea Level Pressure 29.88 in    
Wind  
Wind Speed 14 mph (WSW)    
Max Wind Speed 24 mph    
Max Gust Speed 30 mph    
Visibility 9 miles    
Events Rain    
T = Trace of Precipitation, MM = Missing Value Source: NWS Daily Summary

Daily Weather History Graph

Daily Weather History Graph

Search for Another Location

Airport or City:

Trip Planner

Search our weather history database for the weather conditions in past years. The results will help you decide how hot, cold, wet, or windy it might be!

Date:

Astronomy

Oct. 09, 2012 Rise Set
Actual Time 7:09 AM CDT 6:29 PM CDT
Civil Twilight 6:41 AM CDT 6:57 PM CDT
Nautical Twilight 6:08 AM CDT 7:30 PM CDT
Astronomical Twilight 5:36 AM CDT 8:02 PM CDT
Moon 12:39 AM CDT (10/9) 3:03 PM CDT (10/9)
Length of Visible Light 12h 16m
Length of Day
11h 20m
Last Quarter, 36% of the Moon is Illuminated
Oct 9
Last Quarter
Oct 15
New
Oct 21
First Quarter
Oct 29
Full
Nov 6
Last Quarter

Hourly Weather History & Observations

Time (CDT) Temp. Windchill Dew Point Humidity Pressure Visibility Wind Dir Wind Speed Gust Speed Precip Events Conditions
12:53 AM 51.1 °F - 33.1 °F 50% 29.88 in 10.0 mi SSW 20.7 mph - N/A   Clear
1:53 AM 51.1 °F - 33.1 °F 50% 29.88 in 10.0 mi SSW 18.4 mph - N/A   Mostly Cloudy
2:53 AM 51.8 °F - 33.8 °F 50% 29.86 in 10.0 mi SSW 16.1 mph 24.2 mph N/A   Clear
3:53 AM 50.0 °F - 34.0 °F 54% 29.86 in 10.0 mi SSW 17.3 mph - N/A   Clear
4:53 AM 48.9 °F - 34.0 °F 56% 29.85 in 10.0 mi SSW 15.0 mph 21.9 mph N/A   Mostly Cloudy
5:53 AM 48.9 °F - 34.0 °F 56% 29.85 in 10.0 mi SSW 15.0 mph - N/A   Overcast
6:53 AM 48.9 °F - 35.1 °F 59% 29.84 in 10.0 mi SSW 16.1 mph - N/A   Overcast
7:53 AM 48.0 °F - 36.0 °F 63% 29.85 in 10.0 mi SSW 15.0 mph - N/A   Overcast
8:53 AM 48.9 °F - 36.0 °F 61% 29.84 in 10.0 mi SSW 13.8 mph - N/A   Partly Cloudy
9:53 AM 51.1 °F - 37.0 °F 59% 29.84 in 10.0 mi SW 16.1 mph - N/A   Scattered Clouds
10:53 AM 53.1 °F - 37.0 °F 55% 29.85 in 10.0 mi WSW 17.3 mph 24.2 mph N/A   Partly Cloudy
11:53 AM 55.9 °F - 37.9 °F 51% 29.83 in 10.0 mi WSW 12.7 mph - N/A   Partly Cloudy
12:53 PM 60.1 °F - 39.0 °F 46% 29.81 in 10.0 mi SW 13.8 mph - N/A   Clear
1:53 PM 59.0 °F - 39.9 °F 49% 29.82 in 10.0 mi WSW 13.8 mph - N/A   Overcast
2:27 PM 55.4 °F - 39.2 °F 54% 29.82 in 10.0 mi NW 15.0 mph 23.0 mph N/A   Overcast
2:53 PM 54.0 °F - 42.1 °F 64% 29.84 in 10.0 mi NW 17.3 mph 24.2 mph N/A   Overcast
3:32 PM 48.2 °F - 39.2 °F 71% 29.86 in 10.0 mi WNW 21.9 mph 29.9 mph N/A   Overcast
3:53 PM 46.0 °F 38.0 °F 39.0 °F 76% 29.90 in 10.0 mi NW 21.9 mph - N/A   Overcast
4:53 PM 44.1 °F 37.7 °F 41.0 °F 89% 29.91 in 4.0 mi NNW 12.7 mph - 0.04 in Rain Rain
5:00 PM 42.8 °F 35.8 °F 41.0 °F 93% 29.89 in 5.0 mi NNW 13.8 mph - 0.01 in Rain Light Rain
5:17 PM 42.8 °F 35.8 °F 41.0 °F 93% 29.90 in 5.0 mi WNW 13.8 mph 21.9 mph 0.03 in Rain Light Rain
5:20 PM 42.8 °F 36.2 °F 39.2 °F 87% 29.90 in 5.0 mi NW 12.7 mph 21.9 mph 0.03 in Rain Light Rain
5:53 PM 42.1 °F 37.7 °F 37.9 °F 85% 29.91 in 10.0 mi West 6.9 mph - 0.05 in Rain Light Rain
6:53 PM 42.1 °F 36.1 °F 39.0 °F 89% 29.91 in 10.0 mi West 10.4 mph - 0.00 in   Overcast
7:53 PM 42.1 °F 35.7 °F 39.0 °F 89% 29.92 in 10.0 mi West 11.5 mph - N/A   Partly Cloudy
8:53 PM 42.1 °F 36.6 °F 39.9 °F 92% 29.94 in 10.0 mi West 9.2 mph - N/A   Scattered Clouds
9:53 PM 41.0 °F 35.2 °F 39.0 °F 93% 29.95 in 10.0 mi West 9.2 mph - N/A   Clear
10:53 PM 39.9 °F 33.4 °F 35.1 °F 83% 29.97 in 10.0 mi WNW 10.4 mph - N/A   Partly Cloudy
11:53 PM 39.0 °F 30.6 °F 30.9 °F 73% 29.98 in 10.0 mi NW 15.0 mph - N/A   Clear